Location: Berkeley
(37.8716°N, 122.2727°W)
Time: 04:14:58
(UTC-08:00)

Hubble Space Telescope - Visible Passes

Search period start: 17 December 2018 00:00
Search period end: 27 December 2018 00:00
Orbit: 537 x 540 km, 28.5° (Epoch: 17 December)

Date Brightness Start Highest point End Pass type
(mag) Time Alt. Az. Time Alt. Az. Time Alt. Az.
20 Dec 3.5 19:17:34 10° SSW 19:18:07 12° S 19:18:07 12° S visible
21 Dec 3.1 19:06:39 10° SSW 19:08:19 15° S 19:08:19 15° S visible
22 Dec 2.8 18:55:50 10° SSW 18:58:30 18° S 18:58:30 18° S visible
23 Dec 2.7 18:45:07 10° SW 18:48:06 19° S 18:48:42 19° SSE visible
24 Dec 2.6 18:34:28 10° SW 18:37:33 20° S 18:38:53 18° SSE visible
25 Dec 2.7 18:23:51 10° SW 18:27:02 21° S 18:29:06 15° SE visible
26 Dec 2.7 18:13:17 10° SW 18:16:30 22° S 18:19:22 12° SE visible
26 Dec 3.8 19:54:22 10° SW 19:54:43 11° SW 19:54:43 11° SW visible
